Home   Weather   Creston   Past weeks

Flag for Canada Past Weather in Creston, British Columbia, Canada — Yesterday and Last 2 Weeks

Now
55 °F

Cool.


Feels Like: 53 °F
Forecast: N/A
Wind: 8 mph from Southeast

Location: Creston

Current Time: Oct 1, 2016 at 3:20:57 PM

Latest Report: Oct 1, 2016 at 2:00 PM


Visibility: N/A

Pressure: 29.98 "Hg (27.85 "Hg at 617m altitude)

Humidity: 79%

Dew Point: 49 °F

Location of CrestonLocation

Past Weather in Creston — Graph

°F

Creston Temperature Yesterday

Maximum temperature yesterday: 75 °F (at 2:00 PM)
Minimum temperature yesterday: 54 °F (at 6:00 AM)
Average temperature yesterday: 61 °F

High & Low Weather Summary for the Past Weeks

 TemperatureHumidityPressure
High81 °F (Sep 16, 4:00 PM)99% (Oct 1, 1:00 AM)30.47 "Hg (Oct 1, 1:00 AM)
Low42 °F (Sep 20, 7:00 AM)22% (Sep 16, 5:00 PM)29.74 "Hg (Sep 17, 10:00 PM)
Average56 °F68%30.07 "Hg
* Reported Sep 16 2:00 PM — Oct 1 2:00 PM, Creston, Weather by CustomWeather, © 2016

Note: Actual official high and low records may vary slightly from our data, if they occured in-between our weather recording intervals... More about our weather records

Advertising

Creston Weather History for the Previous 24 Hours

Scroll right to see more
 ConditionsComfort  
Time TempWeatherWind HumidityBarometerVisibility
2:00 PM
Sat, Oct 1
55 °FCool.8 mph79%29.98 "HgN/A
1:00 PM55 °FCool.3 mph84%29.97 "HgN/A
12:00 PM53 °FCool.1 mph94%29.98 "HgN/A
11:00 AM54 °FCool.1 mph92%29.96 "HgN/A
10:00 AM54 °FCool.3 mph93%29.95 "HgN/A
9:00 AM52 °FCool.1 mph96%29.98 "HgN/A
8:00 AM52 °FCool.1 mph96%29.97 "HgN/A
7:00 AM52 °FCool.3 mph95%29.97 "HgN/A
6:00 AM53 °FCool.3 mph93%29.96 "HgN/A
5:00 AM53 °FCool.3 mph95%29.96 "HgN/A
4:00 AM53 °FCool.3 mph96%29.90 "HgN/A
3:00 AM52 °FCool.1 mph95%29.90 "HgN/A
2:00 AM53 °FCool.5 mph94%29.91 "HgN/A
1:00 AM51 °FCool.6 mph99%29.89 "HgN/A
12:00 AM54 °FCool.6 mph91%29.94 "HgN/A
11:00 PM
Fri, Sep 30
58 °FCool.3 mph74%29.90 "HgN/A
10:00 PM56 °FCool.3 mph81%29.91 "HgN/A
9:00 PM58 °FCool.3 mph79%29.92 "HgN/A
8:00 PM58 °FCool.3 mph80%29.95 "HgN/A
7:00 PM60 °FCool.3 mph70%29.94 "HgN/A
6:00 PM60 °FCool.5 mph84%29.94 "HgN/A
5:00 PM62 °FCool.6 mph83%29.95 "HgN/A
4:00 PM63 °FMild.6 mph68%29.95 "HgN/A
3:00 PM67 °FMild.9 mph58%29.92 "HgN/A
Weather by CustomWeather, © 2016

See weather overviewHow to use our weather pages